Tracking 31032 objects as of 13-Jul-2025
HD Live streaming from Space Station
objects crossing your sky now

CZ-6A DEB

Track CZ-6A DEB now!
10-day predictions


NORAD ID: 54450
Int'l Code: 2022-151GA
Perigee: 650.7 km
Apogee: 860.0 km
Inclination: 98.7 °
Period: 99.8 minutes
Semi major axis: 7126 km
RCS: Unknown
Launch date: November 11, 2022
Source: People's Republic of China (PRC)
Launch site: Taiyaun Space Center, China (TSC)

Note: This is SATELLITE DEBRIS
Your satellite tracking list
Your tracking list is empty




NASA's NSSDC Master Catalog

Two Line Element Set (TLE):
1 54450U 22151GA  25193.55978755  .00000292  00000-0  90662-4 0  9990
2 54450  98.7106 239.2482 0146872 284.5473  73.9465 14.43117094139980
Source of the keplerian elements: AFSPC